Weather observations for the past three days for
Pinehurst/Southern Pines, Moore County Airport
Imperial (Metric)
Date Time (edt) Wind (mph) Vis. (mi.) Weather Sky Cond. Temperature (ºF) Relative Humidity Wind Chill (°F) Heat Index (°F) Pressure Precipitation (in)
Air Dwpt 6 hour altimeter (in) sea level (mb) 1 hr 3 hr 6 hr
Max. Min.
16 04:56 SW 6 10.00 Fair CLR 77 73 88% 78 29.98 1015.1
16 03:56 SW 5 10.00 Fair CLR 77 73.9 90% 78 29.96 1014.6
16 02:56 SW 7 10.00 Fair CLR 78.1 73.9 87% 81 29.96 1014.6
16 01:56 SW 7 10.00 Fair CLR 78.1 73.9 84 78.1 87% 81 29.95 1014.3
16 00:56 S 10 10.00 Fair CLR 78.1 73 85% 81 29.97 1014.8
15 23:56 SW 10 10.00 Fair CLR 79 73 82% 82 29.98 1015.1
15 22:56 SW 9 10.00 Fair CLR 80.1 72 76% 84 29.99 1015.4
15 21:56 SW 6 10.00 Fair CLR 81 72 74% 85 29.98 1015.1
15 20:56 S 12 10.00 Fair CLR 82.9 72 70% 88 29.99 1015.3
15 19:56 S 8 10.00 Fair CLR 84 73 93.9 77 70% 90 29.98 1015.2
15 18:56 S 13 10.00 Fair CLR 89.1 72 57% 96 29.98 1015.1
15 17:56 S 6 10.00 Fair CLR 89.1 73 59% 97 29.94 1013.7
15 16:56 S 12 10.00 Thunderstorm in Vicinity SCT075 84 71.1 65% 89 29.97 1014.9 0.15
15 15:56 E 5 10.00 Fair CLR 87.1 72 61% 94 29.97 1014.9 0.11
15 14:56 N 13 7.00 Rain FEW013 SCT055 OVC070 82.9 72 70% 88 30.01 1016.2 0.04
15 13:56 SW 7 10.00 Light Rain FEW031 SCT060 BKN080 93.9 73 97 80.1 51% 103 30 1015.6
15 12:56 Vrbl 3 10.00 Partly Cloudy SCT055 93.9 72 49% 102 30.02 1016.5
15 11:56 Vrbl 6 10.00 Fair CLR 96.1 71.1 44% 104 30.03 1016.8
15 10:56 Calm 10.00 Fair CLR 91 75 59% 102 30.06 1017.7
15 09:56 Calm 10.00 Fair CLR 89.1 75 63% 99 30.06 1017.9
15 08:56 W 5 10.00 Fair CLR 84 75 74% 92 30.06 1018.0
15 07:56 Calm 10.00 Fair CLR 80.1 73.9 80.1 77 82% 85 30.05 1017.8
15 06:56 Calm 10.00 Fair CLR 77 73.9 90% 78 30.04 1017.3
15 05:56 SW 7 10.00 Fair CLR 77 73.9 90% 78 30.03 1016.9
15 04:56 SW 6 10.00 Fair CLR 78.1 73.9 87% 81 30.02 1016.4
15 03:56 SW 7 10.00 Fair CLR 78.1 73.9 87% 81 30.01 1016.0
15 02:56 SW 8 10.00 Fair CLR 79 73.9 85% 83 30.01 1016.2
15 01:56 SW 10 10.00 Fair CLR 80.1 73.9 84 78.1 82% 85 30.04 1017.0
15 00:56 S 14 10.00 Fair CLR 81 73.9 79% 86 30.05 1017.4
14 23:56 S 9 10.00 Fair CLR 82 73.9 77% 88 30.06 1017.7
14 22:56 Calm 10.00 Fair CLR 79 73 82% 82 30.06 1017.9
14 21:56 SW 3 10.00 Fair CLR 80.1 73.9 82% 85 30.05 1017.6
14 20:56 Calm 10.00 Fair CLR 81 75 82% 87 30.05 1017.4
14 19:56 E 5 10.00 Fair CLR 84 73.9 98.1 84 72% 91 30.05 1017.6
14 18:56 E 8 7.00 Fair CLR 86 73.9 67% 94 30.04 1017.4
14 17:56 E 7 10.00 Mostly Cloudy BKN060 86 73 65% 93 30.04 1017.2
14 16:56 E 12 10.00 Partly Cloudy SCT075 89.1 73.9 61% 98 30.04 1017.3
14 15:56 Calm 10.00 Mostly Cloudy FEW033 BKN070 BKN085 89.1 71.1 55% 95 30.06 1017.8
14 14:56 S 8 10.00 Mostly Cloudy BKN075 95 68 41% 100 30.07 1018.1
14 13:56 S 8 G 16 10.00 A Few Clouds FEW065 97 66.9 97 81 37% 101 30.09 1018.7
14 12:56 Vrbl 3 10.00 Fair CLR 96.1 66.9 39% 100 30.11 1019.7
14 11:56 W 6 10.00 Fair CLR 93.9 72 49% 102 30.13 1020.3
14 10:56 SW 6 10.00 Fair CLR 91.9 73 54% 101 30.14 1020.6
14 09:56 Vrbl 5 10.00 Fair CLR 89.1 75 63% 99 30.14 1020.6
14 08:56 W 5 10.00 Fair CLR 84.9 75 72% 93 30.14 1020.7
14 07:56 W 7 10.00 Fair CLR 81 75 81 73.9 82% 87 30.14 1020.5
14 06:56 W 3 10.00 Fair CLR 77 73.9 90% 78 30.13 1020.1
14 05:56 SW 5 10.00 Fair CLR 75.9 73 91% 76 30.12 1019.9
14 04:56 SW 3 10.00 Fair CLR 75 73 94% 73 30.12 1019.8
14 03:56 W 3 10.00 Fair CLR 75.9 73 91% 76 30.12 1019.9
14 02:56 Calm 10.00 Fair CLR 77 73 88% 78 30.13 1020.2
14 01:56 Calm 10.00 Fair CLR 77 73 88 75 88% 78 30.14 1020.5
14 00:56 Calm 10.00 Fair CLR 75 73.9 96% 73 30.14 1020.8
13 23:56 Calm 10.00 Fair CLR 77 73 88% 78 30.15 1020.9
13 22:56 SW 5 10.00 Fair CLR 79 73.9 85% 83 30.15 1021.1
13 21:56 Calm 10.00 Fair CLR 79 75 88% 83 30.15 1020.9
13 20:56 Calm 10.00 Fair CLR 81 73.9 79% 86 30.14 1020.5
13 19:56 Calm 10.00 Fair CLR 88 73.9 93 88 63% 97 30.14 1020.6
13 18:56 Calm 10.00 Fair CLR 91.9 71.1 51% 99 30.13 1020.1
13 17:56 N 5 10.00 Fair CLR 91.9 71.1 51% 99 30.12 1019.9
13 16:56 Vrbl 5 10.00 A Few Clouds FEW049 91.9 71.1 51% 99 30.13 1020.2
13 15:56 W 7 10.00 Partly Cloudy SCT045 91.9 72 52% 100 30.14 1020.5
13 14:56 Vrbl 3 10.00 A Few Clouds FEW047 91 72 54% 99 30.14 1020.7
13 13:56 NW 5 10.00 A Few Clouds FEW037 90 73 90 75.9 58% 98 30.16 1021.1
13 12:56 Vrbl 3 10.00 Partly Cloudy FEW030 SCT042 88 73 61% 96 30.18 1021.9
13 11:56 Vrbl 3 10.00 Overcast BKN026 OVC033 86 75 70% 95 0 0.0
13 10:56 N 3 10.00 A Few Clouds FEW038 82.9 73.9 74% 89 30.19 1022.5
13 09:56 N 3 10.00 Mostly Cloudy SCT014 BKN021 81 73.9 79% 86 30.21 1022.8
13 08:56 Calm 10.00 Overcast FEW004 OVC017 77 75.9 96% 78 30.2 1022.7
13 07:56 NW 3 10.00 Overcast OVC015 75.9 75 75.9 75 97% 75 30.19 1022.2 0.01
13 06:56 Calm 9.00 Overcast SCT007 OVC011 75 75 100% 72 30.17 1021.7
13 05:56 N 3 2.50 Fog/Mist OVC003 75 75 100% 72 30.16 1021.2
Date Time (edt) Wind (mph) Vis. (mi.) Weather Sky Cond. Air Dwpt Max. Min. Relative Humidity Wind Chill (°F) Heat Index (°F) altimeter (in) sea level (mb) 1 hr 3 hr 6 hr
6 hour
Temperature (ºF) Pressure Precipitation (in)